Starlink 11702

operational
NORAD ID: 63752 Int'l Des: 2025-089 Owner: SPXS Country: US Constellation: starlink
LEOCIRCULAR

Über Starlink 11702

Beschreibung wird geladen...

Live-Position

3D-Globus wird geladen...

Nächste Überflüge

Höhenverlauf

Altitude vs Time

uPlot chart will show altitude changes over time

Zweizeiliger Elementsatz

1 63752U 25089B 25260.02820277 .00223385 00000-0 16949-2 0 9994
2 63752 42.9991 258.9669 0001486 262.1524 97.9175 15.70883116 22827
Epoch: 17. Sept. 2025 • Age: 27 hours

Aktueller Status

Höhe 354.6 km
Geschwindigkeit 7.70 km/s
Subsatellitenpunkt 0.87°N, 166.52°W
Startdatum 29. Apr. 2025
Alter 0.3 years
Typ internet

Technische Details

Klassifizierung Payload
Masse 960.00 kg
Trockenmasse 910.00 kg
Gesamtmasse 960.00 kg
Länge 0.30 m
Durchmesser 4.10 m
Spannweite 29.00 m
Form Box + pan
Hersteller SPXS
Bus-Typ Starlink V2MD
Phasenstatus In Orbit
Besitzer/Staat SPXS/US

Große Konstellationen

Loading constellations...